EW3205 Weather Reports


time (UTC)temp
F
wind
direction
speed
knots
gust
knots
rain 1hr
in
rain 24hr
in
rain mn
in
humidity
%
barometer
mb
20260508101532 63 182 4.3 7.8 0.00 0.00 0.00 36 1023.0
20260508100027 63 204 5.2 9.6 0.00 0.00 0.00 35 1023.0
20260508094523 61 252 3.5 9.6 0.00 0.00 0.00 40 1022.9
20260508093022 63 234 3.5 7.8 0.00 0.00 0.00 32 1022.9
20260508091518 63 48 2.6 6.1 0.00 0.00 0.00 27 1022.8
20260508090020 62 82 1.7 6.1 0.00 0.00 0.00 27 1022.8
20260508084512 61 59 3.5 7.0 0.00 0.00 0.00 28 1022.8
20260508083009 61 52 0.9 4.3 0.00 0.00 0.00 28 1022.8
20260508081513 59 52 1.7 5.2 0.00 0.00 0.00 29 1022.7
20260508080002 60 59 2.6 5.2 0.00 0.00 0.00 29 1022.8
20260508074558 59 30 2.6 5.2 0.00 0.00 0.00 30 1022.7
20260508073055 57 50 1.7 7.0 0.00 0.00 0.00 30 1022.7
20260508071556 56 74 2.6 7.8 0.00 0.00 0.00 31 1022.6
20260508070046 54 52 2.6 7.8 0.00 0.00 0.00 33 1022.6
20260508064542 53 52 2.6 6.1 0.00 0.00 0.00 34 1022.5
20260508063052 51 65 3.5 7.8 0.00 0.00 0.00 35 1022.5
20260508061540 49 47 3.5 5.2 0.00 0.00 0.00 41 1022.4
20260508060035 48 38 1.7 3.5 0.00 0.00 0.00 46 1022.4
20260508054529 46 50 1.7 3.5 0.00 0.00 0.00 48 1022.2
20260508053025 45 59 1.7 3.5 0.00 0.00 0.00 47 1022.3
20260508051522 43 75 0.9 3.5 0.00 0.00 0.00 50 1022.1
20260508050018 41 46 0.0 2.6 0.00 0.00 0.00 55 1022.0
20260508044515 40 45 1.7 3.5 0.00 0.00 0.00 57 1021.9
20260508043012 39 44 0.9 3.5 0.00 0.00 0.00 59 1021.8
20260508041510 36 53 0.9 1.7 0.00 0.00 0.00 69 1021.6
20260508040009 35 32 0.9 2.6 0.00 0.00 0.00 70 1021.5
20260508034508 34 56 0.0 0.0 0.00 0.00 0.00 73 1021.4
20260508033006 34 56 0.0 0.0 0.00 0.00 0.00 72 1021.4
20260508031504 34 56 0.0 0.0 0.00 0.00 0.00 72 1021.3
20260508030005 34 56 0.0 0.9 0.00 0.00 0.00 73 1021.2
20260508024600 35 39 0.9 1.7 0.00 0.00 0.00 72 1021.1
20260508023100 35 39 0.0 0.9 0.00 0.00 0.00 72 1021.1
20260508021559 35 39 0.0 1.7 0.00 0.00 0.00 73 1021.1
20260508020105 35 39 0.9 1.7 0.00 0.00 0.00 75 1021.1
20260508014559 35 39 0.9 1.7 0.00 0.00 0.00 75 1021.2
20260508013055 34 39 0.0 1.7 0.00 0.00 0.00 75 1021.0
20260508011552 36 26 0.9 2.6 0.00 0.00 0.00 72 1020.9
20260508010050 36 4 0.0 0.9 0.00 0.00 0.00 72 1020.9
20260508004548 36 4 0.0 0.9 0.00 0.00 0.00 71 1020.7
20260508003046 36 4 0.0 0.9 0.00 0.00 0.00 74 1020.5
20260508001543 36 4 0.0 0.9 0.00 0.00 0.00 73 1020.5
20260508000045 36 4 0.0 0.0 0.00 0.00 0.00 72 1020.4
20260507234542 36 4 0.0 0.0 0.00 0.00 0.00 73 1020.3
20260507233044 36 4 0.0 1.7 0.00 0.00 0.00 73 1020.3
20260507231539 37 4 0.0 1.7 0.00 0.00 0.00 70 1020.2
20260507230041 37 4 0.0 0.9 0.00 0.00 0.00 68 1020.0
20260507224540 38 4 0.0 0.0 0.00 0.00 0.00 68 1020.1
20260507223033 38 4 0.0 0.0 0.00 0.00 0.00 69 1020.1
20260507221536 38 4 0.0 0.0 0.00 0.00 0.00 70 1020.0
20260507220026 39 4 0.0 0.0 0.00 0.00 0.00 69 1019.9
20260507214525 39 4 0.0 0.0 0.00 0.00 0.00 69 1019.9
20260507213024 40 4 0.0 0.0 0.00 0.00 0.00 68 1019.8
20260507211525 41 4 0.0 0.0 0.00 0.00 0.00 70 1019.8
20260507210023 42 4 0.0 0.9 0.00 0.00 0.00 68 1019.8
20260507204522 43 4 0.0 1.7 0.00 0.00 0.00 67 1019.6
20260507203025 44 335 0.9 1.7 0.00 0.00 0.00 62 1019.4
20260507201522 45 333 0.9 3.5 0.00 0.00 0.00 60 1019.3
20260507200018 46 327 0.0 3.5 0.00 0.00 0.00 61 1019.3
20260507194519 46 275 0.0 0.0 0.00 0.00 0.00 59 1019.2
20260507193017 46 290 0.0 0.9 0.00 0.00 0.00 59 1019.0
20260507191514 47 263 0.0 2.6 0.00 0.00 0.00 57 1018.9
20260507190013 48 251 0.0 1.7 0.00 0.00 0.00 55 1018.6
20260507184512 49 254 0.0 1.7 0.00 0.00 0.00 53 1018.4
20260507183013 50 224 0.0 2.6 0.00 0.00 0.00 50 1018.4
20260507181510 51 292 0.9 3.5 0.00 0.00 0.00 46 1018.3
20260507180015 52 313 0.9 5.2 0.00 0.00 0.00 45 1018.2
20260507174511 53 243 0.0 6.1 0.00 0.00 0.00 43 1018.1
20260507173020 54 56 0.9 3.5 0.00 0.00 0.00 43 1018.0
20260507171510 55 329 0.9 7.0 0.00 0.00 0.00 40 1017.9
20260507170009 55 281 0.0 4.3 0.00 0.00 0.00 41 1017.8
20260507164508 56 314 1.7 6.1 0.00 0.00 0.00 39 1017.7
20260507163010 56 268 0.9 7.0 0.00 0.00 0.00 39 1017.6
20260507161507 56 301 0.9 6.1 0.00 0.00 0.00 41 1017.7
20260507160007 56 270 0.9 6.1 0.00 0.00 0.00 41 1017.6
20260507154507 57 330 1.7 7.0 0.00 0.00 0.00 39 1017.6
20260507153006 56 66 0.9 7.8 0.00 0.00 0.00 37 1017.6
20260507151505 57 268 1.7 5.2 0.00 0.00 0.00 38 1017.6
20260507150010 57 278 2.6 8.7 0.00 0.00 0.00 35 1017.5
20260507144631 57 279 2.6 7.8 0.00 0.00 0.00 37 1017.5
20260507143002 58 264 2.6 7.8 0.00 0.00 0.00 35 1017.5
20260507141604 59 348 1.7 7.0 0.00 0.00 0.00 38 1017.5
20260507134605 57 273 2.6 9.6 0.00 0.00 0.00 40 1017.4
20260507133132 58 316 2.6 7.8 0.00 0.00 0.00 45 1017.5
20260507131556 57 253 2.6 8.7 0.00 0.00 0.00 45 1017.4
20260507130107 58 321 2.6 8.7 0.00 0.00 0.00 48 1017.3
20260507124555 58 227 2.6 7.0 0.00 0.00 0.00 47 1017.3
20260507123053 57 332 1.7 8.7 0.00 0.00 0.00 48 1017.1
20260507121605 57 246 2.6 7.8 0.00 0.00 0.00 48 1017.0
20260507120058 58 123 1.7 9.6 0.00 0.00 0.00 49 1017.0
20260507114633 58 282 1.7 7.0 0.00 0.00 0.00 48 1017.0
20260507113049 56 332 1.7 5.2 0.00 0.00 0.00 47 1016.9
20260507111548 57 9 0.9 7.0 0.00 0.00 0.00 51 1017.1
20260507110045 55 280 1.7 7.0 0.00 0.00 0.00 53 1017.0
20260507104544 55 292 1.7 6.1 0.00 0.00 0.00 52 1017.0
20260507103040 55 347 2.6 7.0 0.00 0.00 0.00 53 1016.9